Home > Weather > Bălți > Past weeks

Flag for Moldova Past Weather in Bălți, Moldova — Yesterday and Last 2 Weeks

Now
68 °F

Mild.


Feels Like: 68 °F
Forecast: 68 / 90 °F
Wind: 6 mph from North

Location: Baltsi-Leadoveni - The North of Moldova

Current Time: Jul 26, 2016 at 5:48:44 AM

Latest Report: Jul 26, 2016 at 5:00 AM


Visibility: N/A

Pressure: 30.04 "Hg

Humidity: 69%

Dew Point: 57 °F

Location of BălțiLocation

Past Weather in Bălți — Graph

°F

Bălți Temperature Yesterday

Maximum temperature yesterday: 88 °F (at 2:00 PM)
Minimum temperature yesterday: 66 °F (at 5:00 AM)
Average temperature yesterday: 77 °F

High & Low Weather Summary for the Past Weeks

 TemperatureHumidityPressure
High93 °F (Jul 17, 3:30 PM)94% (Jul 18, 3:00 AM)30.09 "Hg (Jul 18, 3:00 AM)
Low55 °F (Jul 21, 6:00 AM)24% (Jul 22, 3:30 PM)29.71 "Hg (Jul 17, 7:00 PM)
Average73 °F58%29.94 "Hg
* Reported Jul 11 4:00 AM — Jul 26 4:30 AM, Bălți, Weather by CustomWeather, © 2016

Note: Actual official high and low records may vary slightly from our data, if they occured in-between our weather recording intervals... More about our weather records

Advertising

Bălți Weather History for the Previous 24 Hours

Scroll right to see more
 ConditionsComfort  
Time TempWeatherWind HumidityBarometerVisibility
4:30 AM
Tue, Jul 26
68 °FMild.6 mph73%30.04 "HgN/A
4:00 AM70 °FMild.3 mph69%30.04 "HgN/A
3:30 AM72 °FMild.5 mph65%30.04 "HgN/A
3:00 AM72 °FMild.3 mph65%30.04 "HgN/A
2:30 AM72 °FMild.2 mph65%30.04 "HgN/A
2:00 AM72 °FMild.3 mph65%30.04 "HgN/A
1:30 AM72 °FMild.3 mph65%30.04 "HgN/A
1:00 AM73 °FMild.5 mph61%30.04 "HgN/A
12:30 AM73 °FMild.8 mph61%30.04 "HgN/A
12:00 AM73 °FMild.7 mph61%30.04 "HgN/A
11:30 PM
Mon, Jul 25
73 °FMild.8 mph61%30.01 "HgN/A
11:00 PM75 °FMild.3 mph57%30.01 "HgN/A
10:30 PM75 °FMild.6 mph57%30.01 "HgN/A
10:00 PM75 °FMild.6 mph57%30.01 "HgN/A
9:30 PM77 °FWarm.7 mph54%30.01 "HgN/A
9:00 PM77 °FWarm.7 mph57%30.01 "HgN/A
8:30 PM79 °FWarm.7 mph54%30.01 "HgN/A
8:00 PM81 °FWarm.7 mph51%30.01 "HgN/A
7:30 PM82 °FWarm.8 mph45%30.01 "HgN/A
7:00 PM84 °FWarm.7 mph43%30.01 "HgN/A
6:30 PM84 °FWarm.6 mph43%29.98 "HgN/A
6:00 PM84 °FWarm.7 mph43%30.01 "HgN/A
5:30 PM84 °FWarm.10 mph43%30.01 "HgN/A
5:00 PM88 °FPleasantly warm.3 mph38%30.01 "HgN/A
4:30 PM88 °FPleasantly warm.7 mph38%30.01 "HgN/A
4:00 PM86 °FWarm.10 mph43%30.01 "HgN/A
3:30 PM84 °FWarm.9 mph43%30.01 "HgN/A
3:00 PM84 °FWarm.6 mph43%30.01 "HgN/A
2:00 PM88 °FPleasantly warm.6 mph38%30.01 "HgN/A
1:30 PM84 °FWarm.6 mph43%30.01 "HgN/A
1:00 PM82 °FWarm.7 mph48%30.01 "HgN/A
12:30 PM84 °FWarm.7 mph45%30.04 "HgN/A
12:00 PM82 °FWarm.6 mph51%30.04 "HgN/A
11:30 AM81 °FScattered clouds.7 mph54%30.04 "HgN/A
11:00 AM81 °FPassing clouds.5 mph51%30.04 "HgN/A
10:30 AM82 °FPassing clouds.5 mph51%30.04 "HgN/A
10:00 AM81 °FPassing clouds.3 mph58%30.04 "HgN/A
9:30 AM79 °FPassing clouds.5 mph58%30.04 "HgN/A
9:00 AM77 °FPassing clouds.5 mph61%30.04 "HgN/A
8:30 AM73 °FPassing clouds.3 mph69%30.04 "HgN/A
8:00 AM73 °FMild.1 mph65%30.04 "HgN/A
7:30 AM72 °FMild.5 mph73%30.04 "HgN/A
7:00 AM68 °FMild.6 mph78%30.04 "HgN/A
6:30 AM66 °FMild.6 mph83%30.04 "HgN/A
6:00 AM66 °FMild.7 mph78%30.04 "HgN/A
5:30 AM66 °FMild.7 mph78%30.04 "HgN/A
5:00 AM66 °FMild.8 mph78%30.04 "HgN/A
Weather by CustomWeather, © 2016

See weather overviewHow to use our weather pages